CW8287 Weather Reports


Display with metric or nautical units.
time (UTC)temp
F
wind
direction
speed
MPH
gust
MPH
rain 1hr
in
rain 24hr
in
rain mn
in
humidity
%
barometer
mb
20190124062623 56 317 0.0 0.0 0.00 0.00 0.00 39 1009.5
20190124061625 55 317 0.0 0.0 0.00 0.00 0.00 36 1009.6
20190124060629 52 317 0.0 0.0 0.00 0.00 0.00 34 1009.5
20190124055622 50 317 0.0 0.0 0.00 0.00 0.00 29 1009.5
20190124054622 47 317 0.0 0.0 0.00 0.00 0.00 29 1009.3
20190124053627 47 317 0.0 0.0 0.00 0.00 0.00 28 1009.5
20190124052629 45 317 0.0 0.0 0.00 0.00 0.00 28 1009.3
20190124051629 44 317 0.0 0.0 0.00 0.00 0.00 28 1009.3
20190124050631 44 317 0.0 0.0 0.00 0.00 0.00 27 1009.3
20190124045634 43 317 0.0 0.0 0.00 0.00 0.00 27 1009.3
20190124044635 43 317 0.0 0.0 0.00 0.00 0.00 27 1009.2
20190124043635 43 317 0.0 0.0 0.00 0.00 0.00 28 1009.2
20190124042635 43 317 0.0 0.0 0.00 0.00 0.00 28 1009.3
20190124041619 43 317 0.0 0.0 0.00 0.00 0.00 28 1009.2
20190124040620 43 317 0.0 0.0 0.00 0.00 0.00 29 1009.1
20190124035631 43 317 0.0 0.0 0.00 0.00 0.00 29 1009.1
20190124034631 43 317 0.0 0.0 0.00 0.00 0.00 30 1009.2
20190124033615 43 317 0.0 0.0 0.00 0.00 0.00 30 1009.2
20190124032619 43 317 0.0 0.0 0.00 0.00 0.00 32 1009.1
20190124031620 43 317 0.0 0.0 0.00 0.00 0.00 32 1009.1
20190124030623 43 317 0.0 0.0 0.00 0.00 0.00 33 1009.2
20190124025624 44 317 0.0 0.0 0.00 0.00 0.00 34 1009.2
20190124024629 45 317 0.0 0.0 0.00 0.00 0.00 34 1009.1
20190124023632 45 317 0.0 0.0 0.00 0.00 0.00 34 1009.0
20190124022632 45 317 0.0 0.0 0.00 0.00 0.00 33 1008.9
20190124021633 46 317 0.0 0.0 0.00 0.00 0.00 31 1008.9
20190124020618 46 317 0.0 0.0 0.00 0.00 0.00 29 1008.9
20190124015629 46 317 0.0 0.0 0.00 0.00 0.00 27 1009.0
20190124014633 45 317 0.0 0.0 0.00 0.00 0.00 26 1009.0
20190124013617 45 317 0.0 0.0 0.00 0.00 0.00 25 1009.2
20190124012621 44 317 0.0 0.0 0.00 0.00 0.00 25 1009.3
20190124011624 44 317 0.0 0.0 0.00 0.00 0.00 25 1009.4
20190124010630 44 317 0.0 0.0 0.00 0.00 0.00 25 1009.5
20190124005630 44 317 0.0 0.0 0.00 0.00 0.00 25 1009.5
20190124004635 44 317 0.0 0.0 0.00 0.00 0.00 25 1009.6
20190124003618 44 317 0.0 0.0 0.00 0.00 0.00 25 1009.6
20190124002619 44 317 0.0 0.0 0.00 0.00 0.00 25 1009.4
20190124001620 44 317 0.0 0.0 0.00 0.00 0.00 25 1009.5
20190124000625 44 317 0.0 0.0 0.00 0.00 0.00 25 1009.5
20190123235617 44 317 0.0 0.0 0.00 0.00 0.00 25 1009.6
20190123234618 44 317 0.0 0.0 0.00 0.00 0.00 25 1009.6
20190123233620 44 317 0.0 0.0 0.00 0.00 0.00 25 1009.6
20190123232621 45 317 0.0 0.0 0.00 0.00 0.00 25 1009.8
20190123231626 45 317 0.0 0.0 0.00 0.00 0.00 25 1009.8
20190123230628 44 317 0.0 0.0 0.00 0.00 0.00 25 1009.8
20190123225629 44 317 0.0 0.0 0.00 0.00 0.00 26 1009.8
20190123224630 45 317 0.0 0.0 0.00 0.00 0.00 26 1009.8
20190123223636 45 317 0.0 0.0 0.00 0.00 0.00 26 1010.0
20190123222616 45 317 0.0 0.0 0.00 0.00 0.00 26 1010.1
20190123221617 45 317 0.0 0.0 0.00 0.00 0.00 26 1010.0
20190123220621 46 317 0.0 0.0 0.00 0.00 0.00 26 1010.0
20190123215616 46 317 0.0 0.0 0.00 0.00 0.00 27 1010.0
20190123214619 46 317 0.0 0.0 0.00 0.00 0.00 27 1010.2
20190123213621 47 317 0.0 0.0 0.00 0.00 0.00 27 1010.2
20190123212622 47 317 0.0 0.0 0.00 0.00 0.00 26 1010.2
20190123211627 47 317 0.0 0.0 0.00 0.00 0.00 26 1010.1
20190123210629 48 317 0.0 0.0 0.00 0.00 0.00 26 1009.9
20190123205629 48 317 0.0 0.0 0.00 0.00 0.00 26 1009.9
20190123204630 48 317 0.0 0.0 0.00 0.00 0.00 25 1010.0
20190123203630 48 317 0.0 0.0 0.00 0.00 0.00 25 1010.1
20190123202634 48 317 0.0 0.0 0.00 0.00 0.00 25 1010.0
20190123201615 48 317 0.0 0.0 0.00 0.00 0.00 25 1010.0
20190123200618 48 317 0.0 0.0 0.00 0.00 0.00 24 1010.0
20190123195631 48 317 0.0 0.0 0.00 0.00 0.00 24 1010.2
20190123194616 48 317 0.0 0.0 0.00 0.00 0.00 24 1010.2
20190123193619 49 317 0.0 0.0 0.00 0.00 0.00 24 1010.2
20190123192620 49 317 0.0 0.0 0.00 0.00 0.00 25 1010.3
20190123191621 49 317 0.0 0.0 0.00 0.00 0.00 26 1010.3
20190123190627 48 317 0.0 0.0 0.00 0.00 0.00 27 1010.5
20190123185626 48 317 0.0 0.0 0.00 0.00 0.00 26 1010.8
20190123184628 48 315 0.0 0.0 0.00 0.00 0.00 25 1010.8
20190123183629 48 315 0.0 0.0 0.00 0.00 0.00 24 1010.8
20190123182633 48 315 0.0 0.0 0.00 0.00 0.00 24 1010.7
20190123181635 49 315 0.0 0.0 0.00 0.00 0.00 23 1010.8
20190123180616 49 315 0.0 0.0 0.00 0.00 0.00 23 1015.4
20190123175628 49 315 0.0 0.0 0.00 0.00 0.00 23 1010.8
20190123174630 50 315 0.0 0.0 0.00 0.00 0.00 23 1010.6
20190123173636 50 315 0.0 0.0 0.00 0.00 0.00 23 1010.9
20190123172616 50 315 0.0 0.0 0.00 0.00 0.00 23 1010.9
20190123171619 51 315 0.0 0.0 0.00 0.00 0.00 23 1010.8
20190123170621 51 315 0.0 0.0 0.00 0.00 0.00 23 1010.8
20190123165626 52 315 0.0 0.0 0.00 0.00 0.00 23 1010.9
20190123164626 53 315 0.0 0.0 0.00 0.00 0.00 23 1011.2
20190123163628 53 315 0.0 0.0 0.00 0.00 0.00 23 1010.9
20190123162629 54 315 0.0 0.0 0.00 0.00 0.00 24 1010.9
20190123161613 54 315 0.0 0.0 0.00 0.00 0.00 25 1010.9
20190123160618 55 315 0.0 0.0 0.00 0.00 0.00 27 1010.9
20190123155629 56 315 0.0 0.0 0.00 0.00 0.00 28 1010.9
20190123154614 57 315 0.0 0.0 0.00 0.00 0.00 31 1010.9
20190123153622 58 315 0.0 0.0 0.00 0.00 0.00 36 1011.0
20190123152624 59 315 0.0 0.0 0.00 0.00 0.00 40 1010.9
20190123151626 60 315 0.0 0.0 0.00 0.00 0.00 43 1010.8
20190123150633 61 315 0.0 0.0 0.00 0.00 0.00 44 1010.8
20190123145619 62 315 0.0 0.0 0.00 0.00 0.00 46 1010.8
20190123144622 62 315 0.0 0.0 0.00 0.00 0.00 47 1010.9
20190123143629 63 315 0.0 0.0 0.00 0.00 0.00 48 1010.9
20190123142632 64 315 0.0 0.0 0.00 0.00 0.00 50 1011.0
20190123141620 64 315 0.0 0.0 0.00 0.00 0.00 50 1011.0
20190123140623 64 315 0.0 0.0 0.00 0.00 0.00 51 1012.1
20190123135617 65 315 0.0 0.0 0.00 0.00 0.00 51 1011.4
20190123134620 65 315 0.0 0.0 0.00 0.00 0.00 52 1012.3
20190123133627 66 315 0.0 0.0 0.00 0.00 0.00 51 1011.2
20190123132629 66 315 0.0 0.0 0.00 0.00 0.00 51 1011.1
20190123131632 67 315 0.0 0.0 0.00 0.00 0.00 51 1011.4
20190123130613 67 315 0.0 0.0 0.00 0.00 0.00 50 1011.4
20190123125621 67 316 0.0 0.0 0.00 0.00 0.00 51 1011.6
20190123124626 67 313 0.0 0.0 0.00 0.00 0.00 51 1011.8
20190123123629 67 317 0.0 0.0 0.00 0.00 0.00 51 1013.3
20190123122629 67 315 0.0 0.0 0.00 0.00 0.00 50 1011.9
20190123121617 67 314 0.0 0.0 0.00 0.00 0.00 50 1011.9
20190123120620 68 318 0.0 0.0 0.00 0.00 0.00 48 1012.1
20190123115614 68 318 0.0 0.0 0.00 0.00 0.00 49 1013.3
20190123114618 68 316 0.0 0.0 0.00 0.00 0.00 49 1012.3
20190123113622 68 315 0.0 0.0 0.00 0.00 0.00 49 1012.6
20190123112630 68 311 0.0 0.0 0.00 0.00 0.00 48 1012.7
20190123111614 67 311 0.0 0.0 0.00 0.00 0.00 49 1012.9
20190123110619 67 311 0.0 0.0 0.00 0.00 0.00 49 1013.0
20190123105621 67 310 0.0 0.0 0.00 0.00 0.00 50 1013.4
20190123104629 67 309 0.0 0.0 0.00 0.00 0.00 50 1013.8
20190123103633 67 313 0.0 0.0 0.00 0.00 0.00 48 1013.8
20190123102615 66 313 0.0 0.0 0.00 0.00 0.00 48 1013.9
20190123101617 66 313 0.0 0.0 0.00 0.00 0.00 48 1014.0
20190123100624 65 313 0.0 0.0 0.00 0.00 0.00 48 1013.9
20190123095619 66 313 0.0 0.0 0.00 0.00 0.00 47 1014.4
20190123094623 66 313 0.0 0.0 0.00 0.00 0.00 46 1014.5
20190123093626 66 313 0.0 0.0 0.00 0.00 0.00 47 1017.7
20190123092633 65 313 0.0 0.0 0.00 0.00 0.00 46 1014.8
20190123091616 66 313 0.0 0.0 0.00 0.00 0.00 45 1014.8
20190123090619 66 313 0.0 0.0 0.00 0.00 0.00 45 1015.1
20190123085621 65 313 0.0 0.0 0.00 0.00 0.00 43 1015.2
20190123084629 64 313 0.0 0.0 0.00 0.00 0.00 42 1015.3
20190123083635 63 313 0.0 0.0 0.00 0.00 0.00 42 1015.4
20190123082617 63 311 0.0 0.0 0.00 0.00 0.00 40 1015.5
20190123081620 62 311 0.0 0.0 0.00 0.00 0.00 40 1015.6
20190123080631 62 310 0.0 0.0 0.00 0.00 0.00 40 1016.0
20190123075624 61 311 0.0 0.0 0.00 0.00 0.00 39 1016.0
20190123074626 60 309 0.0 0.0 0.00 0.00 0.00 36 1016.2
20190123073629 59 309 0.0 0.0 0.00 0.00 0.00 32 1016.4
20190123072634 57 309 0.0 0.0 0.00 0.00 0.00 26 1016.6
20190123071635 55 309 0.0 0.0 0.00 0.00 0.00 22 1016.6
20190123070636 53 309 0.0 0.0 0.00 0.00 0.00 23 1016.6
20190123065616 52 309 0.0 0.0 0.00 0.00 0.00 24 1016.5
20190123064620 51 309 0.0 0.0 0.00 0.00 0.00 24 1016.2
20190123063621 50 309 0.0 0.0 0.00 0.00 0.00 25 1016.1